Location: Ferques
(50.8300°N, 1.7599°E)
Time: 20:35:28
(UTC+00:00)

Meteor 2-8 Rocket - Pass Details

Date: 19 May 2025
Orbit: 937 x 957 km, 82.5° (Epoch: 21 June)

Event Time Altitude Azimuth Distance (km) Brightness Sun altitude
Rises 23:13:03 0° 349° (N) 3,650 9.2 -18.7°
Reaches altitude 10° 23:15:34 10° 350° (N) 2,701 8.1 -18.8°
Maximum altitude 23:21:46 87° 79° (E) 967 4.4 -18.9°
Enters shadow 23:24:50 32° 168° (SSE) 1,574 5.0 -19.0°
